Theta_e
302 297 296 300 302 303 302 301 299 303 305 302 302 303 305 308 308 306 307 309 311 312 315 319 321 323 324 328 334 344 351 360 360 357 355 356 354 356 356 357 360 358 356 357
300 294 299 302 302 302 301 299 299 302 302 302 302 302 305 307 307 309 308 309 310 312 314 316 319 322 325 327 331 339 350 357 360 357 358 356 356 355 356 356 358 358 356 356
297 299 302 299 298 298 300 299 298 298 302 303 301 299 302 306 308 309 311 311 312 313 313 316 318 321 325 326 330 336 349 357 358 357 355 354 353 352 349 352 353 355 356 355
300 304 300 298 297 299 294 300 299 298 297 293 301 291 301 304 305 308 310 311 312 313 314 316 317 320 324 325 328 333 342 352 355 358 353 349 349 347 349 351 351 352 354 352
299 300 299 297 299 301 297 301 299 299 297 296 296 293 298 304 302 305 309 311 312 314 314 314 316 319 323 325 326 334 343 350 353 356 354 347 351 350 349 349 353 349 352 352
301 305 302 301 301 302 303 300 299 299 296 289 295 295 296 300 303 306 309 311 312 314 315 316 318 320 322 324 326 335 345 349 352 349 352 351 351 349 347 348 346 345 346 349
296 299 303 303 298 302 299 294 289 286 289 288 297 294 297 303 304 307 308 311 313 315 315 316 317 318 323 324 330 338 344 345 344 345 347 351 350 350 351 349 347 347 346 347
288 289 298 302 300 296 295 296 291 284 286 290 297 292 297 305 308 309 310 312 315 320 316 316 321 325 329 333 337 341 342 340 343 345 346 347 349 348 348 349 347 346 346 347
291 292 300 303 303 302 296 294 301 294 295 292 295 298 303 305 306 307 309 314 320 323 326 327 329 332 334 336 339 340 339 340 342 343 345 347 348 348 346 343 344 339 340 338
296 290 298 301 303 302 300 302 293 295 287 285 291 294 295 301 303 308 310 318 320 324 328 329 331 334 336 335 336 337 338 339 342 342 341 339 337 338 339 340 337 337 339 338
297 294 295 300 298 296 296 296 297 297 295 289 288 293 304 304 308 310 315 319 321 322 324 326 329 332 333 335 335 336 338 337 335 337 337 337 336 335 335 335 333 333 334 334
298 292 289 294 301 303 302 299 299 293 292 294 294 297 311 311 312 314 314 316 320 322 323 325 327 328 330 332 335 337 338 338 337 335 332 330 329 328 327 326 326 326 325 325
295 288 286 289 295 299 297 299 301 299 298 293 291 294 310 309 309 312 312 314 318 322 324 328 329 331 332 333 332 332 331 330 329 329 327 326 325 324 323 323 323 323 322 322
295 289 287 289 293 298 296 297 301 298 294 295 295 297 305 305 307 310 311 314 317 318 322 323 323 325 325 324 323 324 324 325 325 324 323 321 321 321 321 321 321 320 320 319
288 285 290 290 293 298 298 299 299 295 299 293 297 297 305 307 307 309 311 312 313 315 317 318 318 319 318 320 321 321 320 320 320 319 318 319 320 320 319 318 317 316 316 314
292 285 288 289 298 299 297 298 299 299 298 298 299 298 311 312 310 308 309 310 312 312 311 313 314 316 315 315 315 316 316 317 318 317 316 316 316 315 315 315 315 315 314 314
289 289 292 289 296 297 291 297 299 298 299 299 295 301 312 307 307 308 309 311 311 310 310 311 310 311 312 313 315 314 316 317 316 314 314 314 314 313 313 313 313 313 312 313
290 290 292 290 293 285 298 306 304 302 302 303 304 308 310 311 311 312 311 307 308 308 311 309 309 309 309 313 311 312 312 312 310 312 312 312 311 311 311 311 311 311 310 309
294 291 290 287 289 293 298 301 300 298 299 305 304 310 311 311 310 308 310 308 306 304 305 305 308 309 310 309 310 310 309 309 309 309 309 308 308 308 307 307 307 307 306 305
295 294 289 289 286 286 293 301 308 306 294 309 309 311 309 311 302 304 310 311 308 307 305 303 305 306 308 308 311 311 310 310 308 307 306 306 306 305 304 304 304 304 304 303
289 288 287 289 288 291 294 300 306 293 297 310 311 311 311 309 312 312 313 310 310 308 305 304 303 304 307 311 311 306 307 305 305 304 304 304 304 303 303 303 304 303 303 303
290 288 289 289 290 286 295 301 296 301 311 311 312 313 309 311 311 307 302 302 303 302 303 303 304 304 305 308 308 305 303 303 304 303 302 302 302 302 302 303 303 301 300 300
288 292 289 288 288 294 297 299 307 310 312 311 312 311 308 302 298 298 297 297 297 299 301 304 302 301 302 304 306 304 302 303 302 301 301 301 302 303 303 301 299 299 298 297
296 299 291 291 288 292 296 300 303 305 304 304 303 305 302 297 296 295 295 295 296 300 303 303 302 301 300 302 302 301 301 301 299 300 301 302 303 300 299 299 297 296 296 296
296 297 290 288 291 295 295 299 299 300 298 296 297 297 295 295 295 295 297 300 300 299 302 304 303 302 301 300 300 300 299 298 299 300 300 299 300 298 297 296 296 295 292 292
298 295 294 288 291 293 291 296 301 299 297 298 297 295 296 295 294 295 295 297 299 300 302 302 301 300 298 298 298 298 297 297 298 297 298 295 296 296 296 295 294 290 290 289
Wind_Speed
18 14 25 25 25 22 22 17 17 19 19 16 20 21 21 21 20 16 15 15 17 19 16 17 17 14 13 13 14 16 16 15 13 12 11 11 12 11 11 9 10 7 7 9
13 26 23 20 22 21 23 20 18 12 7 14 19 20 18 19 20 20 21 21 21 18 18 18 17 15 13 14 14 14 15 15 14 11 10 9 8 8 8 6 6 9 9 10
21 11 17 24 20 21 24 25 21 18 14 16 18 21 20 20 20 19 19 22 21 22 21 19 18 17 15 14 15 16 16 16 15 14 9 6 6 3 6 8 9 10 10 9
18 22 22 18 21 21 24 23 21 18 15 18 17 19 18 23 25 23 22 21 20 21 20 19 19 19 16 15 14 14 15 15 14 15 12 11 10 9 9 9 8 8 8 7
20 14 19 23 21 20 18 17 16 21 19 18 21 15 18 19 17 20 20 22 20 20 21 21 21 19 17 16 14 13 14 15 14 14 12 10 11 5 6 6 8 5 6 7
22 17 15 20 22 20 15 12 15 16 16 18 23 19 12 17 19 16 18 17 21 21 21 23 21 17 15 13 13 13 15 14 13 12 11 12 10 8 7 8 8 7 6 8
11 27 24 15 15 18 16 12 8 10 15 19 14 16 20 4 4 13 17 12 9 14 17 17 16 15 14 15 15 15 16 14 12 13 12 11 10 10 9 9 7 7 7 5
8 9 25 21 24 20 22 20 9 13 15 16 16 13 14 11 19 11 11 8 7 11 14 16 18 17 17 17 17 17 17 16 14 13 10 9 10 7 6 3 5 4 3 3
10 16 9 17 22 22 21 26 24 15 11 9 16 18 17 6 10 12 12 8 2 5 9 15 16 16 17 17 16 17 17 15 14 13 12 11 9 8 9 8 7 6 6 4
9 21 20 13 14 24 27 20 19 12 15 15 14 17 10 7 14 10 12 9 8 7 11 10 13 15 16 16 15 17 17 16 16 14 11 10 13 12 11 10 11 9 7 8
9 7 7 13 22 20 21 16 20 16 14 10 12 12 4 4 3 6 8 7 9 12 11 11 13 15 17 17 17 16 17 17 15 15 15 16 15 14 13 12 12 11 10 9
7 4 6 19 14 19 24 20 25 12 15 15 14 0 7 4 3 3 8 7 10 11 12 13 14 16 16 16 16 18 19 19 17 17 17 17 16 15 14 13 12 11 10 9
7 1 4 5 7 13 25 22 22 18 12 15 15 7 7 5 5 7 10 11 12 15 16 17 18 19 20 20 20 19 19 19 18 17 17 16 15 14 13 12 10 9 8 8
10 4 12 10 9 17 25 27 25 21 12 14 14 5 9 6 9 11 11 13 16 15 18 19 19 20 20 20 19 19 19 18 17 16 16 15 14 13 11 10 9 9 8 7
1 7 15 17 27 20 26 28 26 23 22 14 11 16 10 9 9 11 12 11 15 19 20 19 20 20 20 20 19 18 18 17 16 16 15 14 12 11 10 9 9 8 8 8
2 7 5 5 6 17 21 22 25 25 20 19 11 7 15 12 12 13 13 15 19 19 21 20 20 20 20 19 18 17 17 16 15 15 13 11 11 10 8 7 7 6 7 7
6 5 5 2 6 8 8 20 21 20 20 17 13 13 15 13 14 16 14 15 18 18 20 20 17 16 16 16 15 16 15 14 15 14 12 10 8 8 6 6 7 7 7 8
8 6 4 4 5 4 5 15 16 19 20 20 16 14 15 18 16 17 18 14 17 16 17 15 14 11 11 14 14 14 14 12 12 13 11 8 8 7 7 7 7 8 9 9
14 4 3 2 4 4 7 3 16 14 16 17 16 15 16 18 18 15 17 15 15 15 13 12 9 9 11 11 12 10 13 11 12 11 8 7 7 7 8 9 9 9 10 10
11 12 2 1 4 4 5 11 12 7 11 11 6 21 21 24 13 8 18 18 17 16 15 12 10 8 10 7 6 13 11 10 10 8 7 7 8 8 9 9 9 8 8 7
3 2 5 4 3 4 8 14 12 7 3 13 14 23 21 11 10 18 20 18 16 17 18 14 10 6 9 12 10 11 10 9 7 6 6 6 7 8 7 7 6 6 6 7
1 4 3 3 3 4 14 6 1 4 4 10 10 18 17 18 21 20 17 17 17 17 16 14 13 11 9 11 9 9 8 5 4 4 5 7 7 5 4 4 5 5 5 4
0 2 2 4 4 4 5 8 1 7 12 9 17 19 22 20 18 18 16 15 14 14 13 14 12 13 11 9 7 7 5 3 5 6 5 5 4 3 4 5 5 5 5 4
3 3 3 3 7 11 13 16 17 19 19 19 16 18 19 23 17 18 16 12 10 10 13 13 13 12 11 7 7 5 2 4 5 5 4 3 3 4 5 4 4 4 4 4
8 5 5 5 3 13 19 17 16 20 19 19 18 19 17 22 13 17 16 15 13 12 10 10 9 9 8 6 5 3 4 5 4 3 4 3 2 3 4 5 5 4 8 8
10 7 4 4 7 13 11 12 17 21 18 17 20 18 15 16 15 13 12 11 11 11 9 8 8 7 6 4 3 4 5 5 4 2 1 3 3 4 3 3 5 10 9 10
Wind_Direction
197 214 222 225 224 244 262 277 223 235 231 228 234 250 236 237 236 229 219 226 231 228 233 223 209 208 205 204 196 203 198 195 194 200 198 211 211 210 214 218 212 194 221 238
197 231 236 233 239 234 243 241 237 243 210 251 248 256 241 238 240 230 230 233 237 230 222 226 217 213 207 207 204 204 202 193 193 193 197 210 219 215 218 204 204 204 200 208
237 239 221 234 228 226 229 237 241 241 225 244 256 257 248 240 240 240 228 234 231 233 228 220 221 216 210 210 203 202 197 191 190 192 179 177 171 196 190 197 200 201 209 208
245 249 250 223 228 219 236 229 245 254 238 245 226 259 242 227 231 231 225 225 228 225 227 231 220 219 217 223 212 206 197 192 188 188 167 182 187 198 213 207 206 178 192 210
237 223 228 223 218 221 240 240 216 231 231 243 240 250 249 240 220 233 229 222 226 226 225 224 225 225 211 211 198 190 185 184 181 177 173 178 218 181 173 195 162 163 178 197
254 261 234 236 223 224 219 230 212 225 233 232 230 234 246 228 222 229 237 223 220 221 224 225 221 218 204 191 188 173 172 171 167 168 190 187 169 157 172 173 157 168 182 182
270 239 238 233 216 195 208 204 205 209 214 234 212 223 238 294 255 226 230 218 227 238 226 217 207 187 180 177 171 164 165 152 154 162 171 177 163 180 174 170 174 169 173 174
254 247 208 214 225 201 198 210 214 198 212 231 207 232 227 234 235 232 204 254 264 222 204 189 178 170 165 160 158 148 152 150 156 147 137 144 148 161 147 162 123 145 151 149
238 241 210 200 206 212 205 209 227 277 290 270 188 224 267 205 232 225 238 233 153 162 159 156 151 153 140 148 138 141 138 130 131 131 134 133 131 132 90 86 77 75 57 55
272 264 260 220 221 224 229 210 217 215 243 214 238 235 230 208 214 212 204 148 147 161 130 110 126 127 119 120 123 127 125 123 123 114 95 94 98 103 113 93 78 86 96 91
320 251 226 215 202 207 207 226 213 209 245 237 235 221 97 302 142 197 167 127 143 142 121 120 120 113 115 112 110 114 113 108 110 112 107 106 99 93 91 95 93 86 84 79
358 275 250 239 218 209 216 207 209 215 206 244 279 121 56 76 137 166 167 143 121 118 120 120 115 107 106 110 121 123 121 113 106 104 102 100 98 93 89 86 84 82 78 71
357 259 281 180 258 247 213 206 219 222 240 219 230 234 58 105 155 156 144 141 133 133 125 127 123 120 112 109 106 108 107 105 103 103 102 98 95 93 89 86 82 79 77 66
345 245 231 273 224 185 202 197 215 206 221 225 220 196 159 160 156 139 139 141 126 127 123 115 109 110 110 109 109 108 104 103 103 101 97 96 91 88 85 80 71 61 53 44
270 272 237 240 262 182 192 195 201 209 218 231 228 223 135 156 157 143 137 129 128 127 119 121 119 111 110 109 105 102 101 102 101 97 93 90 88 83 75 65 58 49 37 27
339 280 249 237 233 176 196 202 202 203 216 220 215 244 77 126 130 133 138 144 137 125 121 116 112 112 111 106 106 107 106 103 103 98 95 93 88 81 73 62 55 40 24 12
264 272 307 60 175 149 209 209 213 211 216 233 212 238 132 139 144 143 131 137 125 118 113 113 94 98 98 100 106 102 103 103 100 98 94 90 87 79 62 42 23 10 358 345
242 278 296 330 138 194 67 192 207 211 209 218 219 160 155 153 147 145 134 124 118 113 111 100 87 93 103 104 100 102 93 82 92 86 80 70 51 38 19 1 355 346 334 325
208 225 260 273 227 269 127 141 200 194 214 217 201 130 147 132 125 127 133 123 109 91 81 78 83 90 83 88 103 118 94 91 83 83 70 51 27 4 352 341 335 327 321 321
195 214 243 132 244 206 29 332 346 175 197 177 182 147 147 148 135 139 148 149 127 124 104 90 86 103 97 98 88 87 94 86 76 65 49 24 7 346 328 328 323 320 325 324
130 139 214 223 249 111 358 319 302 180 133 170 191 159 160 145 128 129 123 125 123 119 126 119 101 114 126 95 102 94 88 77 66 44 15 348 341 324 320 319 319 337 347 354
220 189 175 219 190 142 347 351 318 313 184 139 144 144 115 106 114 113 110 111 117 118 121 128 126 115 99 103 106 96 84 71 42 358 341 338 329 324 332 324 12 22 15 3
259 346 112 4 52 321 335 282 243 232 111 113 116 123 122 116 108 112 111 108 107 117 131 124 119 112 96 82 87 99 80 24 348 327 333 322 337 2 19 27 26 33 19 12
167 115 93 139 3 44 51 47 53 61 76 76 80 105 111 110 111 106 97 100 113 115 122 130 125 113 104 100 88 73 13 345 326 324 331 6 44 356 40 42 38 38 7 23
355 50 76 81 172 88 46 64 79 88 85 82 77 81 87 95 92 101 119 125 119 126 128 116 111 111 114 102 79 24 341 342 352 354 17 18 40 40 59 61 38 64 53 32
354 346 26 46 50 89 56 54 82 83 80 84 90 81 81 89 105 113 116 123 130 121 119 113 108 106 85 47 25 357 16 4 20 39 25 42 24 44 59 88 118 84 89 78